Location: Santa Maria di Sala
(45.5070°N, 12.0300°E)
Time: 03:39:27
(UTC+02:00)

Envisat - Pass Details

Date: 21 April 2024
Orbit: 762 x 764 km, 98.3° (Epoch: 24 May)

Event Time Altitude Azimuth Distance (km) Brightness Sun altitude
Rises 03:39:48 0° 24° (NNE) 3,238 7.5 -23.4°
Reaches altitude 10° 03:42:29 10° 37° (NE) 2,307 6.6 -23.1°
Maximum altitude 03:46:43 26° 94° (E) 1,472 4.8 -22.6°
Drops below altitude 10° 03:50:54 10° 150° (SSE) 2,291 5.3 -22.1°
Enters shadow 03:51:00 10° 151° (SSE) 2,324 5.3 -22.1°
